,,,PA_Meas_PMT16A,,PR_Meas_QMR101_102,,RH_Meas_QMH101,,SR_Meas_QMS101,,TA_Meas_QMH101,,GenWind,,GenWind,
date,time,status,PA,status,PR,status,RH,status,SR,status,TA,status,DirAvg,status,SpdAvg,
2011-01-31, 00:00:04,VALID,1011.35,VALID,0,VALID,103.009,VALID,0,VALID,23.926,VALID,334,VALID,0.000390625,
2011-01-31, 00:01:04,VALID,1011.35,VALID,0,VALID,102.978,VALID,0,VALID,23.9473,VALID,4,VALID,0,
2011-01-31, 00:02:04,VALID,1011.32,VALID,0,VALID,102.955,VALID,0,VALID,23.9455,VALID,4,VALID,0,
2011-01-31, 00:03:04,VALID,1011.32,VALID,0,VALID,102.963,VALID,0,VALID,23.9473,VALID,40,VALID,0.235938,
2011-01-31, 00:04:04,VALID,1011.29,VALID,0,VALID,102.955,VALID,0,VALID,23.9473,VALID,40,VALID,0.110937,
2011-01-31, 00:05:04,VALID,1011.29,VALID,0,VALID,102.94,VALID,0,VALID,23.9668,VALID,40,VALID,0,
2011-01-31, 00:06:04,VALID,1011.27,VALID,0,VALID,102.925,VALID,0.105969,VALID,23.9473,VALID,40,VALID,0,
2011-01-31, 00:07:04,VALID,1011.24,VALID,0,VALID,102.925,VALID,0,VALID,23.9278,VALID,40,VALID,0,
2011-01-31, 00:08:04,VALID,1011.23,VALID,0,VALID,102.925,VALID,0,VALID,23.926,VALID,40,VALID,0,
2011-01-31, 00:09:04,VALID,1011.19,VALID,0,VALID,102.932,VALID,0,VALID,23.9473,VALID,40,VALID,0.506641,
2011-01-31, 00:10:04,VALID,1011.2,VALID,0,VALID,102.932,VALID,0.105969,VALID,23.9473,VALID,40,VALID,0,
2011-01-31, 00:11:04,VALID,1011.19,VALID,0,VALID,102.91,VALID,0.105969,VALID,23.9455,VALID,40,VALID,0,
2011-01-31, 00:12:04,VALID,1011.18,VALID,0,VALID,102.91,VALID,0,VALID,23.9473,VALID,49,VALID,0.548828,
2011-01-31, 00:13:04,VALID,1011.17,VALID,0,VALID,102.871,VALID,0.105969,VALID,23.926,VALID,77,VALID,0.601953,
2011-01-31, 00:14:04,VALID,1011.18,VALID,0,VALID,102.864,VALID,0.105969,VALID,23.926,VALID,40,VALID,0.4375,
2011-01-31, 00:15:04,VALID,1011.17,VALID,0,VALID,102.856,VALID,0.105969,VALID,23.9668,VALID,40,VALID,0.219141,
2011-01-31, 00:16:04,VALID,1011.13,VALID,0,VALID,102.833,VALID,0,VALID,23.9455,VALID,77,VALID,0.791406,
2011-01-31, 00:17:04,VALID,1011.13,VALID,0,VALID,102.856,VALID,0.105969,VALID,23.965,VALID,85,VALID,0.227344,
2011-01-31, 00:18:04,VALID,1011.11,VALID,0,VALID,102.826,VALID,0.105969,VALID,23.9455,VALID,81,VALID,0.496094,
2011-01-31, 00:19:04,VALID,1011.09,VALID,0,VALID,102.833,VALID,0,VALID,23.9473,VALID,27,VALID,0.387109,
2011-01-31, 00:20:04,VALID,1011.07,VALID,0,VALID,102.81,VALID,0,VALID,23.9455,VALID,27,VALID,0.135547,
2011-01-31, 00:21:04,VALID,1011.07,VALID,0,VALID,102.818,VALID,0,VALID,23.9473,VALID,49,VALID,0.500391,
2011-01-31, 00:22:04,VALID,1011.07,VALID,0,VALID,102.833,VALID,0.105969,VALID,23.9473,VALID,50,VALID,0.0332031,
2011-01-31, 00:23:04,VALID,1011.05,VALID,0,VALID,102.826,VALID,0.105969,VALID,23.9473,VALID,54,VALID,0,
2011-01-31, 00:24:04,VALID,1011.03,VALID,0,VALID,102.818,VALID,0,VALID,23.9473,VALID,61,VALID,0.595312,
2011-01-31, 00:25:04,VALID,1011.04,VALID,0,VALID,102.833,VALID,0.105969,VALID,23.9065,VALID,27,VALID,0.511719,
2011-01-31, 00:26:04,VALID,1011.03,VALID,0,VALID,102.826,VALID,0,VALID,23.9084,VALID,29,VALID,1.10938,
2011-01-31, 00:27:04,VALID,1011,VALID,0,VALID,102.81,VALID,0.105969,VALID,23.9084,VALID,12,VALID,0.782031,
2011-01-31, 00:28:04,VALID,1010.97,VALID,0,VALID,102.818,VALID,0,VALID,23.9084,VALID,13,VALID,0.0871094,
2011-01-31, 00:29:04,VALID,1010.96,VALID,0,VALID,102.849,VALID,0.105969,VALID,23.8889,VALID,76,VALID,0.677344,
2011-01-31, 00:30:04,VALID,1010.94,VALID,0,VALID,102.78,VALID,0.105969,VALID,23.8676,VALID,55,VALID,0.223438,
2011-01-31, 00:31:04,VALID,1010.94,VALID,0.5,VALID,102.81,VALID,0,VALID,23.8499,VALID,11,VALID,0.531641,
2011-01-31, 00:32:04,VALID,1010.92,VALID,0,VALID,102.856,VALID,0,VALID,23.8091,VALID,11,VALID,0.203906,
2011-01-31, 00:33:04,VALID,1010.93,VALID,0,VALID,102.856,VALID,0.105969,VALID,23.7896,VALID,11,VALID,0,
2011-01-31, 00:34:04,VALID,1010.93,VALID,0,VALID,102.856,VALID,0.105969,VALID,23.7914,VALID,352,VALID,0.39375,
2011-01-31, 00:35:04,VALID,1010.92,VALID,0,VALID,102.902,VALID,0.105969,VALID,23.733,VALID,352,VALID,0.0277344,
2011-01-31, 00:36:04,VALID,1010.91,VALID,0,VALID,102.894,VALID,0.105969,VALID,23.6922,VALID,352,VALID,0,
2011-01-31, 00:37:04,VALID,1010.9,VALID,0,VALID,102.925,VALID,0.105969,VALID,23.6727,VALID,352,VALID,0.246875,
2011-01-31, 00:38:04,VALID,1010.88,VALID,0,VALID,102.932,VALID,0.105969,VALID,23.6338,VALID,76,VALID,0.875391,
2011-01-31, 00:39:04,VALID,1010.85,VALID,0,VALID,102.932,VALID,0.105969,VALID,23.6356,VALID,60,VALID,0.523438,
2011-01-31, 00:40:04,VALID,1010.86,VALID,0,VALID,102.948,VALID,0.105969,VALID,23.5948,VALID,60,VALID,0.0195313,
2011-01-31, 00:41:04,VALID,1010.84,VALID,0,VALID,102.91,VALID,0.105969,VALID,23.5753,VALID,60,VALID,0,
2011-01-31, 00:42:04,VALID,1010.85,VALID,0,VALID,102.894,VALID,0,VALID,23.5771,VALID,60,VALID,0.159375,
2011-01-31, 00:43:04,VALID,1010.81,VALID,0,VALID,102.894,VALID,0,VALID,23.5576,VALID,61,VALID,0.0707031,
2011-01-31, 00:44:04,VALID,1010.82,VALID,0,VALID,102.925,VALID,0,VALID,23.5186,VALID,67,VALID,0.344141,
2011-01-31, 00:45:04,VALID,1010.82,VALID,0,VALID,102.925,VALID,0,VALID,23.4992,VALID,60,VALID,0.00195313,
2011-01-31, 00:46:04,VALID,1010.84,VALID,0,VALID,102.902,VALID,0,VALID,23.4797,VALID,60,VALID,0.560156,
2011-01-31, 00:47:04,VALID,1010.83,VALID,0,VALID,102.963,VALID,0,VALID,23.4407,VALID,60,VALID,0.605469,
2011-01-31, 00:48:04,VALID,1010.83,VALID,0,VALID,102.955,VALID,0,VALID,23.4212,VALID,60,VALID,0.128125,
2011-01-31, 00:49:04,VALID,1010.83,VALID,0,VALID,102.955,VALID,0,VALID,23.4017,VALID,66,VALID,0.402344,
2011-01-31, 00:50:04,VALID,1010.86,VALID,0,VALID,102.948,VALID,0,VALID,23.3823,VALID,65,VALID,0.458594,
2011-01-31, 00:51:04,VALID,1010.87,VALID,0,VALID,102.955,VALID,0,VALID,23.3628,VALID,89,VALID,0.398438,
2011-01-31, 00:52:04,VALID,1010.87,VALID,0,VALID,102.902,VALID,0,VALID,23.3823,VALID,86,VALID,0.00742187,
2011-01-31, 00:53:04,VALID,1010.88,VALID,0,VALID,102.894,VALID,0,VALID,23.384,VALID,59,VALID,0.0105469,
2011-01-31, 00:54:04,VALID,1010.87,VALID,0,VALID,102.902,VALID,0,VALID,23.3433,VALID,57,VALID,0,
2011-01-31, 00:55:04,VALID,1010.86,VALID,0,VALID,102.902,VALID,0,VALID,23.3451,VALID,57,VALID,0.00078125,
2011-01-31, 00:56:04,VALID,1010.85,VALID,0,VALID,102.948,VALID,0.105969,VALID,23.3026,VALID,64,VALID,0.612891,
2011-01-31, 00:57:04,VALID,1010.83,VALID,0,VALID,102.902,VALID,0.105969,VALID,23.2831,VALID,64,VALID,0.499219,
2011-01-31, 00:58:04,VALID,1010.87,VALID,0,VALID,102.887,VALID,0.105969,VALID,23.2831,VALID,65,VALID,0.225781,
2011-01-31, 00:59:04,VALID,1010.84,VALID,0,VALID,102.887,VALID,0.105969,VALID,23.2831,VALID,56,VALID,0.473047,
2011-01-31, 01:00:04,VALID,1010.85,VALID,0,VALID,102.864,VALID,0.105969,VALID,23.2848,VALID,56,VALID,0.304688,
2011-01-31, 01:01:04,VALID,1010.85,VALID,0,VALID,102.871,VALID,0.105969,VALID,23.2636,VALID,56,VALID,0,
2011-01-31, 01:02:04,VALID,1010.86,VALID,0,VALID,102.849,VALID,0.105969,VALID,23.2636,VALID,56,VALID,0,
2011-01-31, 01:03:04,VALID,1010.84,VALID,0,VALID,102.856,VALID,0.105969,VALID,23.2636,VALID,56,VALID,0,
2011-01-31, 01:04:04,VALID,1010.86,VALID,0,VALID,102.826,VALID,0.105969,VALID,23.3043,VALID,56,VALID,0,
2011-01-31, 01:05:04,VALID,1010.87,VALID,0,VALID,102.81,VALID,0.105969,VALID,23.2831,VALID,56,VALID,0,
2011-01-31, 01:06:04,VALID,1010.87,VALID,0,VALID,102.795,VALID,0.105969,VALID,23.2831,VALID,56,VALID,0,
2011-01-31, 01:07:04,VALID,1010.88,VALID,0,VALID,102.788,VALID,0.105969,VALID,23.2831,VALID,56,VALID,0.0191406,
2011-01-31, 01:08:04,VALID,1010.83,VALID,0,VALID,102.803,VALID,0.105969,VALID,23.2831,VALID,56,VALID,0.19375,
2011-01-31, 01:09:04,VALID,1010.85,VALID,0,VALID,102.795,VALID,0,VALID,23.2636,VALID,52,VALID,0.0816406,
2011-01-31, 01:10:04,VALID,1010.83,VALID,0,VALID,102.757,VALID,0,VALID,23.3043,VALID,52,VALID,0.272266,
2011-01-31, 01:11:04,VALID,1010.79,VALID,0,VALID,102.757,VALID,0.105969,VALID,23.2831,VALID,52,VALID,0,
2011-01-31, 01:12:04,VALID,1010.77,VALID,0,VALID,102.765,VALID,0.105969,VALID,23.2848,VALID,52,VALID,0,
2011-01-31, 01:13:04,VALID,1010.75,VALID,0,VALID,102.78,VALID,0.105969,VALID,23.2654,VALID,52,VALID,0,
2011-01-31, 01:14:04,VALID,1010.72,VALID,0,VALID,102.772,VALID,0.105969,VALID,23.2654,VALID,27,VALID,0.0304688,
2011-01-31, 01:15:04,VALID,1010.68,VALID,0,VALID,102.765,VALID,0.105969,VALID,23.2441,VALID,27,VALID,0,
2011-01-31, 01:16:04,VALID,1010.66,VALID,0,VALID,102.795,VALID,0.105969,VALID,23.2441,VALID,27,VALID,0.189453,
2011-01-31, 01:17:04,VALID,1010.61,VALID,0,VALID,102.78,VALID,0.105969,VALID,23.2246,VALID,339,VALID,0.538672,
2011-01-31, 01:18:04,VALID,1010.6,VALID,0,VALID,102.78,VALID,0.105969,VALID,23.2246,VALID,335,VALID,0,
2011-01-31, 01:19:04,VALID,1010.57,VALID,0,VALID,102.749,VALID,0.105969,VALID,23.2246,VALID,338,VALID,0.000390625,
2011-01-31, 01:20:04,VALID,1010.53,VALID,0,VALID,102.757,VALID,0.105969,VALID,23.2051,VALID,19,VALID,0.143359,
2011-01-31, 01:21:04,VALID,1010.5,VALID,0,VALID,102.765,VALID,0.105969,VALID,23.2051,VALID,19,VALID,0.00585938,
2011-01-31, 01:22:04,VALID,1010.51,VALID,0,VALID,102.749,VALID,0,VALID,23.2264,VALID,19,VALID,0,
2011-01-31, 01:23:04,VALID,1010.47,VALID,0,VALID,102.734,VALID,0.105969,VALID,23.2051,VALID,19,VALID,0,
2011-01-31, 01:24:04,VALID,1010.45,VALID,0,VALID,102.742,VALID,0,VALID,23.1857,VALID,19,VALID,0,
2011-01-31, 01:25:04,VALID,1010.44,VALID,0,VALID,102.749,VALID,0.105969,VALID,23.2051,VALID,19,VALID,0.0308594,
2011-01-31, 01:26:04,VALID,1010.42,VALID,0,VALID,102.757,VALID,0.105969,VALID,23.1662,VALID,19,VALID,0,
2011-01-31, 01:27:04,VALID,1010.45,VALID,0,VALID,102.727,VALID,0.105969,VALID,23.1857,VALID,19,VALID,0.596875,
2011-01-31, 01:28:04,VALID,1010.41,VALID,0,VALID,102.757,VALID,0.105969,VALID,23.1662,VALID,54,VALID,0.601172,
2011-01-31, 01:29:04,VALID,1010.4,VALID,0,VALID,102.765,VALID,0.105969,VALID,23.1467,VALID,54,VALID,0.0984375,
2011-01-31, 01:30:04,VALID,1010.38,VALID,0,VALID,102.734,VALID,0.105969,VALID,23.1679,VALID,54,VALID,0.248828,
2011-01-31, 01:31:04,VALID,1010.37,VALID,0,VALID,102.742,VALID,0.105969,VALID,23.1662,VALID,87,VALID,0.508594,
2011-01-31, 01:32:04,VALID,1010.35,VALID,0,VALID,102.719,VALID,0.105969,VALID,23.1679,VALID,90,VALID,1.03477,
2011-01-31, 01:33:04,VALID,1010.37,VALID,0,VALID,102.757,VALID,0.105969,VALID,23.1272,VALID,83,VALID,0.185937,
2011-01-31, 01:34:04,VALID,1010.36,VALID,0,VALID,102.719,VALID,0.105969,VALID,23.1467,VALID,83,VALID,0,
2011-01-31, 01:35:04,VALID,1010.33,VALID,0,VALID,102.711,VALID,0.105969,VALID,23.1272,VALID,87,VALID,0.416797,
2011-01-31, 01:36:04,VALID,1010.34,VALID,0,VALID,102.749,VALID,0,VALID,23.1077,VALID,90,VALID,0.337109,
2011-01-31, 01:37:04,VALID,1010.33,VALID,0,VALID,102.772,VALID,0.105969,VALID,23.0883,VALID,97,VALID,0.279297,
2011-01-31, 01:38:04,VALID,1010.32,VALID,0,VALID,102.719,VALID,0,VALID,23.1077,VALID,97,VALID,0,
2011-01-31, 01:39:04,VALID,1010.27,VALID,0,VALID,102.757,VALID,0.105969,VALID,23.0883,VALID,85,VALID,0.209766,
2011-01-31, 01:40:04,VALID,1010.26,VALID,0,VALID,102.757,VALID,0,VALID,23.09,VALID,73,VALID,0.568359,
2011-01-31, 01:41:04,VALID,1010.26,VALID,0,VALID,102.757,VALID,0,VALID,23.0705,VALID,73,VALID,0.120703,
2011-01-31, 01:42:04,VALID,1010.25,VALID,0,VALID,102.727,VALID,0.105969,VALID,23.0705,VALID,73,VALID,0,
2011-01-31, 01:43:04,VALID,1010.2,VALID,0,VALID,102.757,VALID,0,VALID,23.0298,VALID,71,VALID,0.142969,
2011-01-31, 01:44:04,VALID,1010.22,VALID,0,VALID,102.727,VALID,0,VALID,23.0511,VALID,71,VALID,0.0121094,
2011-01-31, 01:45:04,VALID,1010.2,VALID,0,VALID,102.734,VALID,0,VALID,23.0511,VALID,71,VALID,0.445313,
2011-01-31, 01:46:04,VALID,1010.21,VALID,0,VALID,102.727,VALID,0,VALID,23.0316,VALID,71,VALID,0.00195313,
2011-01-31, 01:47:04,VALID,1010.19,VALID,0,VALID,102.696,VALID,0.105969,VALID,23.0705,VALID,71,VALID,0.00195313,
2011-01-31, 01:48:04,VALID,1010.18,VALID,0,VALID,102.666,VALID,0.105969,VALID,23.0705,VALID,71,VALID,0,
2011-01-31, 01:49:04,VALID,1010.19,VALID,0,VALID,102.681,VALID,0,VALID,23.0511,VALID,71,VALID,0,
2011-01-31, 01:50:04,VALID,1010.13,VALID,0,VALID,102.681,VALID,0,VALID,23.0705,VALID,71,VALID,0,
2011-01-31, 01:51:04,VALID,1010.11,VALID,0,VALID,102.681,VALID,0.105969,VALID,23.0298,VALID,71,VALID,0,
2011-01-31, 01:52:04,VALID,1010.08,VALID,0,VALID,102.666,VALID,0,VALID,23.0705,VALID,71,VALID,0,
2011-01-31, 01:53:04,VALID,1010.04,VALID,0,VALID,102.65,VALID,0,VALID,23.0511,VALID,71,VALID,0,
2011-01-31, 01:54:04,VALID,1010.02,VALID,0,VALID,102.65,VALID,0,VALID,23.0493,VALID,71,VALID,0.407813,
2011-01-31, 01:55:04,VALID,1010.02,VALID,0,VALID,102.627,VALID,0,VALID,23.0705,VALID,71,VALID,0.0347656,
2011-01-31, 01:56:04,VALID,1009.99,VALID,0,VALID,102.643,VALID,0,VALID,23.0705,VALID,71,VALID,0.00117188,
2011-01-31, 01:57:04,VALID,1010.02,VALID,0,VALID,102.666,VALID,0.105969,VALID,23.0298,VALID,71,VALID,0,
2011-01-31, 01:58:04,VALID,1010.01,VALID,0,VALID,102.65,VALID,0,VALID,23.0511,VALID,71,VALID,0,
2011-01-31, 01:59:04,VALID,1009.99,VALID,0,VALID,102.673,VALID,0,VALID,23.0103,VALID,75,VALID,0.145703,
2011-01-31, 02:00:04,VALID,1010.01,VALID,0,VALID,102.696,VALID,0.105969,VALID,23.0316,VALID,75,VALID,0,
2011-01-31, 02:01:04,VALID,1010.02,VALID,0,VALID,102.711,VALID,0,VALID,22.9909,VALID,75,VALID,0,
2011-01-31, 02:02:04,VALID,1009.99,VALID,0,VALID,102.688,VALID,0,VALID,23.0121,VALID,75,VALID,0,
2011-01-31, 02:03:04,VALID,1010,VALID,0,VALID,102.688,VALID,0,VALID,22.9926,VALID,75,VALID,0,
2011-01-31, 02:04:04,VALID,1009.98,VALID,0,VALID,102.719,VALID,0.105969,VALID,22.9926,VALID,75,VALID,0,
2011-01-31, 02:05:04,VALID,1010,VALID,0,VALID,102.688,VALID,0,VALID,22.9926,VALID,75,VALID,0,
2011-01-31, 02:06:04,VALID,1010,VALID,0,VALID,102.673,VALID,0.105969,VALID,22.9926,VALID,75,VALID,0,
2011-01-31, 02:07:04,VALID,1009.98,VALID,0,VALID,102.681,VALID,0.105969,VALID,22.9731,VALID,75,VALID,0,
2011-01-31, 02:08:04,VALID,1009.98,VALID,0,VALID,102.688,VALID,0,VALID,22.9731,VALID,75,VALID,0,
2011-01-31, 02:09:04,VALID,1009.97,VALID,0,VALID,102.681,VALID,0,VALID,22.9731,VALID,75,VALID,0,
2011-01-31, 02:10:04,VALID,1009.92,VALID,0,VALID,102.658,VALID,0.105969,VALID,22.9731,VALID,75,VALID,0,
2011-01-31, 02:11:04,VALID,1009.94,VALID,0,VALID,102.658,VALID,0,VALID,22.9731,VALID,75,VALID,0,
2011-01-31, 02:12:04,VALID,1009.94,VALID,0,VALID,102.666,VALID,0,VALID,22.9714,VALID,75,VALID,0,
2011-01-31, 02:13:04,VALID,1009.93,VALID,0,VALID,102.635,VALID,0,VALID,22.9731,VALID,75,VALID,0,
2011-01-31, 02:14:04,VALID,1009.92,VALID,0,VALID,102.635,VALID,0,VALID,22.9519,VALID,75,VALID,0,
2011-01-31, 02:15:04,VALID,1009.89,VALID,0,VALID,102.635,VALID,0,VALID,22.9536,VALID,75,VALID,0,
2011-01-31, 02:16:04,VALID,1009.93,VALID,0,VALID,102.658,VALID,0,VALID,22.9324,VALID,75,VALID,0,
2011-01-31, 02:17:04,VALID,1009.91,VALID,0,VALID,102.643,VALID,0.105969,VALID,22.9342,VALID,75,VALID,0,
2011-01-31, 02:18:04,VALID,1009.89,VALID,0,VALID,102.643,VALID,0,VALID,22.9342,VALID,75,VALID,0,
2011-01-31, 02:19:04,VALID,1009.86,VALID,0,VALID,102.658,VALID,0,VALID,22.9342,VALID,75,VALID,0,
2011-01-31, 02:20:04,VALID,1009.86,VALID,0,VALID,102.65,VALID,0,VALID,22.9147,VALID,75,VALID,0,
2011-01-31, 02:21:04,VALID,1009.84,VALID,0,VALID,102.643,VALID,0,VALID,22.9342,VALID,75,VALID,0,
2011-01-31, 02:22:04,VALID,1009.83,VALID,0,VALID,102.643,VALID,0,VALID,22.9342,VALID,75,VALID,0,
2011-01-31, 02:23:04,VALID,1009.82,VALID,0,VALID,102.635,VALID,0.105969,VALID,22.8935,VALID,75,VALID,0,
2011-01-31, 02:24:04,VALID,1009.82,VALID,0,VALID,102.635,VALID,0.105969,VALID,22.9147,VALID,75,VALID,0,
2011-01-31, 02:25:04,VALID,1009.81,VALID,0,VALID,102.627,VALID,0.105969,VALID,22.9342,VALID,75,VALID,0,
2011-01-31, 02:26:04,VALID,1009.84,VALID,0,VALID,102.62,VALID,0,VALID,22.9147,VALID,75,VALID,0,
2011-01-31, 02:27:04,VALID,1009.84,VALID,0,VALID,102.612,VALID,0.105969,VALID,22.9129,VALID,75,VALID,0,
2011-01-31, 02:28:04,VALID,1009.82,VALID,0,VALID,102.666,VALID,0,VALID,22.8757,VALID,75,VALID,0,
2011-01-31, 02:29:04,VALID,1009.85,VALID,0,VALID,102.635,VALID,0.105969,VALID,22.8952,VALID,75,VALID,0,
2011-01-31, 02:30:04,VALID,1009.82,VALID,0,VALID,102.658,VALID,0,VALID,22.9147,VALID,75,VALID,0,
2011-01-31, 02:31:04,VALID,1009.84,VALID,0,VALID,102.612,VALID,0,VALID,22.9342,VALID,75,VALID,0,
2011-01-31, 02:32:04,VALID,1009.83,VALID,0,VALID,102.612,VALID,0,VALID,22.9147,VALID,75,VALID,0,
2011-01-31, 02:33:04,VALID,1009.8,VALID,0,VALID,102.589,VALID,0,VALID,22.8935,VALID,75,VALID,0,
2011-01-31, 02:34:04,VALID,1009.81,VALID,0,VALID,102.612,VALID,0.105969,VALID,22.9147,VALID,75,VALID,0,
2011-01-31, 02:35:04,VALID,1009.76,VALID,0,VALID,102.605,VALID,0,VALID,22.8952,VALID,75,VALID,0,
2011-01-31, 02:36:04,VALID,1009.76,VALID,0,VALID,102.612,VALID,0.105969,VALID,22.8952,VALID,75,VALID,0,
2011-01-31, 02:37:04,VALID,1009.72,VALID,0,VALID,102.612,VALID,0.105969,VALID,22.8935,VALID,75,VALID,0,
2011-01-31, 02:38:04,VALID,1009.68,VALID,0,VALID,102.582,VALID,0.105969,VALID,22.9342,VALID,75,VALID,0,
2011-01-31, 02:39:04,VALID,1009.67,VALID,0,VALID,102.544,VALID,0.105969,VALID,22.9324,VALID,75,VALID,0,
2011-01-31, 02:40:04,VALID,1009.67,VALID,0,VALID,102.544,VALID,0,VALID,22.9342,VALID,75,VALID,0,
2011-01-31, 02:41:04,VALID,1009.64,VALID,0,VALID,102.551,VALID,0.105969,VALID,22.9324,VALID,75,VALID,0,
2011-01-31, 02:42:04,VALID,1009.63,VALID,0,VALID,102.551,VALID,0.105969,VALID,22.9324,VALID,75,VALID,0,
2011-01-31, 02:43:04,VALID,1009.61,VALID,0,VALID,102.544,VALID,0.105969,VALID,22.9731,VALID,75,VALID,0,
2011-01-31, 02:44:04,VALID,1009.6,VALID,0,VALID,102.528,VALID,0.105969,VALID,22.9536,VALID,75,VALID,0,
2011-01-31, 02:45:04,VALID,1009.59,VALID,0,VALID,102.513,VALID,0.105969,VALID,22.9324,VALID,75,VALID,0,
2011-01-31, 02:46:04,VALID,1009.58,VALID,0,VALID,102.544,VALID,0.105969,VALID,22.9519,VALID,75,VALID,0,
2011-01-31, 02:47:04,VALID,1009.6,VALID,0,VALID,102.49,VALID,0,VALID,22.9714,VALID,75,VALID,0,
2011-01-31, 02:48:04,VALID,1009.53,VALID,0,VALID,102.505,VALID,0.105969,VALID,22.9926,VALID,75,VALID,0.276953,
2011-01-31, 02:49:04,VALID,1009.57,VALID,0,VALID,102.521,VALID,0.105969,VALID,22.9731,VALID,75,VALID,0.264453,
2011-01-31, 02:50:04,VALID,1009.54,VALID,0,VALID,102.521,VALID,0.105969,VALID,22.9519,VALID,75,VALID,0.04375,
2011-01-31, 02:51:04,VALID,1009.54,VALID,0,VALID,102.513,VALID,0.105969,VALID,22.9714,VALID,75,VALID,0,
2011-01-31, 02:52:04,VALID,1009.56,VALID,0,VALID,102.521,VALID,0.105969,VALID,22.9519,VALID,75,VALID,0,
2011-01-31, 02:53:04,VALID,1009.54,VALID,0,VALID,102.544,VALID,0.105969,VALID,22.9731,VALID,75,VALID,0,
2011-01-31, 02:54:04,VALID,1009.5,VALID,0,VALID,102.551,VALID,0,VALID,22.9731,VALID,75,VALID,0.430859,
2011-01-31, 02:55:04,VALID,1009.5,VALID,0,VALID,102.498,VALID,0.105969,VALID,22.9926,VALID,75,VALID,0.0894531,
2011-01-31, 02:56:04,VALID,1009.48,VALID,0,VALID,102.467,VALID,0,VALID,23.0121,VALID,75,VALID,0.267578,
2011-01-31, 02:57:04,VALID,1009.48,VALID,0,VALID,102.498,VALID,0,VALID,22.9926,VALID,75,VALID,0.536328,
2011-01-31, 02:58:04,VALID,1009.46,VALID,0,VALID,102.544,VALID,0.105969,VALID,22.9943,VALID,70,VALID,0.519531,
2011-01-31, 02:59:04,VALID,1009.44,VALID,0,VALID,102.559,VALID,0,VALID,22.9536,VALID,62,VALID,0.642578,
2011-01-31, 03:00:04,VALID,1009.44,VALID,0,VALID,102.566,VALID,0,VALID,22.9342,VALID,61,VALID,0.487109,
2011-01-31, 03:01:04,VALID,1009.38,VALID,0,VALID,102.566,VALID,0,VALID,22.9147,VALID,61,VALID,0.355859,
2011-01-31, 03:02:04,VALID,1009.4,VALID,0,VALID,102.582,VALID,0,VALID,22.9359,VALID,61,VALID,0.4,
2011-01-31, 03:03:04,VALID,1009.41,VALID,0,VALID,102.559,VALID,0,VALID,22.9147,VALID,61,VALID,0,
2011-01-31, 03:04:04,VALID,1009.4,VALID,0,VALID,102.544,VALID,0,VALID,22.9164,VALID,61,VALID,0.383594,
2011-01-31, 03:05:04,VALID,1009.42,VALID,0,VALID,102.536,VALID,0,VALID,22.9147,VALID,61,VALID,0.0667969,
2011-01-31, 03:06:04,VALID,1009.41,VALID,0,VALID,102.536,VALID,0,VALID,22.9359,VALID,61,VALID,0,
2011-01-31, 03:07:04,VALID,1009.41,VALID,0,VALID,102.544,VALID,0,VALID,22.8952,VALID,61,VALID,0,
2011-01-31, 03:08:04,VALID,1009.42,VALID,0,VALID,102.551,VALID,0,VALID,22.8952,VALID,61,VALID,0,
2011-01-31, 03:09:04,VALID,1009.38,VALID,0,VALID,102.536,VALID,0,VALID,22.8969,VALID,61,VALID,0,
2011-01-31, 03:10:04,VALID,1009.41,VALID,0,VALID,102.551,VALID,0,VALID,22.8952,VALID,61,VALID,0,
2011-01-31, 03:11:04,VALID,1009.41,VALID,0,VALID,102.528,VALID,0.105969,VALID,22.874,VALID,61,VALID,0,
2011-01-31, 03:12:04,VALID,1009.42,VALID,0,VALID,102.544,VALID,0.105969,VALID,22.8952,VALID,61,VALID,0,
2011-01-31, 03:13:04,VALID,1009.43,VALID,0,VALID,102.536,VALID,0.105969,VALID,22.874,VALID,61,VALID,0,
2011-01-31, 03:14:04,VALID,1009.44,VALID,0,VALID,102.551,VALID,0.105969,VALID,22.8757,VALID,61,VALID,0,
2011-01-31, 03:15:04,VALID,1009.43,VALID,0,VALID,102.521,VALID,0.105969,VALID,22.8757,VALID,61,VALID,0,
2011-01-31, 03:16:04,VALID,1009.41,VALID,0,VALID,102.551,VALID,0.105969,VALID,22.8757,VALID,61,VALID,0,
2011-01-31, 03:17:04,VALID,1009.4,VALID,0,VALID,102.551,VALID,0.105969,VALID,22.8757,VALID,61,VALID,0,
2011-01-31, 03:18:04,VALID,1009.42,VALID,0,VALID,102.528,VALID,0.105969,VALID,22.8757,VALID,61,VALID,0,
2011-01-31, 03:19:04,VALID,1009.4,VALID,0,VALID,102.513,VALID,0.105969,VALID,22.8562,VALID,61,VALID,0,
2011-01-31, 03:20:04,VALID,1009.37,VALID,0,VALID,102.513,VALID,0,VALID,22.8562,VALID,61,VALID,0,
2011-01-31, 03:21:04,VALID,1009.4,VALID,0,VALID,102.536,VALID,0.105969,VALID,22.8562,VALID,61,VALID,0,
2011-01-31, 03:22:04,VALID,1009.41,VALID,0,VALID,102.513,VALID,0.105969,VALID,22.8368,VALID,61,VALID,0,
2011-01-31, 03:23:04,VALID,1009.39,VALID,0,VALID,102.528,VALID,0.105969,VALID,22.8155,VALID,61,VALID,0,
2011-01-31, 03:24:04,VALID,1009.39,VALID,0,VALID,102.528,VALID,0,VALID,22.8368,VALID,61,VALID,0,
2011-01-31, 03:25:04,VALID,1009.39,VALID,0,VALID,102.513,VALID,0,VALID,22.8155,VALID,61,VALID,0,
2011-01-31, 03:26:04,VALID,1009.36,VALID,0,VALID,102.528,VALID,0,VALID,22.7978,VALID,61,VALID,0,
2011-01-31, 03:27:04,VALID,1009.39,VALID,0,VALID,102.505,VALID,0,VALID,22.8173,VALID,61,VALID,0,
2011-01-31, 03:28:04,VALID,1009.36,VALID,0,VALID,102.49,VALID,0,VALID,22.8385,VALID,61,VALID,0,
2011-01-31, 03:29:04,VALID,1009.36,VALID,0,VALID,102.49,VALID,0,VALID,22.8173,VALID,61,VALID,0,
2011-01-31, 03:30:04,VALID,1009.36,VALID,0,VALID,102.498,VALID,0,VALID,22.8173,VALID,61,VALID,0.348828,
2011-01-31, 03:31:04,VALID,1009.34,VALID,0,VALID,102.49,VALID,0,VALID,22.8173,VALID,63,VALID,0,
2011-01-31, 03:32:04,VALID,1009.35,VALID,0,VALID,102.49,VALID,0,VALID,22.8173,VALID,63,VALID,0,
2011-01-31, 03:33:04,VALID,1009.35,VALID,0,VALID,102.482,VALID,0,VALID,22.8173,VALID,63,VALID,0,
2011-01-31, 03:34:04,VALID,1009.34,VALID,0,VALID,102.475,VALID,0,VALID,22.8173,VALID,63,VALID,0,
2011-01-31, 03:35:04,VALID,1009.31,VALID,0,VALID,102.475,VALID,0,VALID,22.8173,VALID,63,VALID,0,
2011-01-31, 03:36:04,VALID,1009.34,VALID,0,VALID,102.49,VALID,0,VALID,22.8173,VALID,63,VALID,0,
2011-01-31, 03:37:04,VALID,1009.32,VALID,0,VALID,102.467,VALID,0,VALID,22.8173,VALID,63,VALID,0,
2011-01-31, 03:38:04,VALID,1009.3,VALID,0,VALID,102.467,VALID,0,VALID,22.7978,VALID,63,VALID,0,
2011-01-31, 03:39:04,VALID,1009.3,VALID,0,VALID,102.482,VALID,0,VALID,22.8173,VALID,63,VALID,0,
2011-01-31, 03:40:04,VALID,1009.3,VALID,0,VALID,102.46,VALID,0,VALID,22.7978,VALID,63,VALID,0,
2011-01-31, 03:41:04,VALID,1009.32,VALID,0,VALID,102.452,VALID,0.105969,VALID,22.8173,VALID,63,VALID,0,
2011-01-31, 03:42:04,VALID,1009.27,VALID,0,VALID,102.467,VALID,0.105969,VALID,22.8173,VALID,63,VALID,0,
2011-01-31, 03:43:04,VALID,1009.3,VALID,0,VALID,102.452,VALID,0.211938,VALID,22.8155,VALID,63,VALID,0,
2011-01-31, 03:44:04,VALID,1009.27,VALID,0,VALID,102.467,VALID,0.105969,VALID,22.8155,VALID,63,VALID,0,
2011-01-31, 03:45:04,VALID,1009.24,VALID,0,VALID,102.444,VALID,0.105969,VALID,22.835,VALID,63,VALID,0,
2011-01-31, 03:46:04,VALID,1009.23,VALID,0,VALID,102.444,VALID,0.105969,VALID,22.8155,VALID,63,VALID,0,
2011-01-31, 03:47:04,VALID,1009.22,VALID,0,VALID,102.429,VALID,0.105969,VALID,22.8155,VALID,63,VALID,0,